[[{"header":{"parameterUnit":"m.s-1","parameterCategory":1,"la1":30.2991,"la2":30.254,"lo1":-89.0895,"lo2":-89.0444,"dy":0.0017,"dx":0.0017,"nx":28,"ny":28,"refTime":"2024-06-04T03:00:00:Z","depth":0,"parameterNumber":2,"parameterNumberName":"U-component_of_WINDS"},"data":[0,0,0,0,0,0,0,0,0,0,0,0,0,0,0,0,0,0,0,0,0,0,0,0,0,0,0,0,0,0,0,0,0,0,0,0,0,0,0,0,0,0,0,0,0,0,0,0,0,0,0,0,0,0,0,0,0,0,-5.1025,-5.1026,0,-5.1117,-5.1118,-5.1119,-5.1076,-5.1074,-5.1071,-5.1069,-5.1155,-5.1159,-5.1164,0,0,0,0,0,0,0,0,0,0,0,0,0,-5.0801,-5.0806,-5.1024,-5.1026,-5.1027,-5.1117,-5.1118,-5.112,-5.1076,-5.1073,-5.1071,-5.1068,-5.1153,-5.1159,-5.1164,0,0,0,0,0,0,0,0,0,0,0,0,0,-5.0896,-5.0807,-5.1024,-5.1016,-5.1017,-5.1117,-5.1118,-5.112,-5.1077,-5.1073,-5.107,-5.1067,-5.1152,-5.1158,-5.1165,-5.1275,0,0,-5.1185,-5.1188,0,0,0,0,0,0,0,0,-5.0891,-5.0904,-5.1016,-5.1017,-5.1017,-5.1082,-5.1071,-5.1172,-5.1078,-5.1054,-5.1069,-5.1065,-5.1133,-5.1141,-5.1165,-5.1279,-5.1283,-5.1186,-5.119,-5.1193,-5.1194,0,0,0,0,0,0,0,-5.0884,-5.09,-5.1061,-5.1018,-5.1019,-5.1005,-5.1015,-5.109,-5.1111,-5.1055,-5.1053,-5.1065,-5.1132,-5.1159,-5.1167,-5.1284,-5.1185,-5.1191,-5.1195,-5.1198,-5.1492,-5.1495,0,0,0,0,0,0,-5.0879,-5.0895,-5.1058,-5.1064,-5.0945,-5.1012,-5.1023,-5.1064,-5.111,-5.1114,-5.1068,-5.1062,-5.1149,-5.1159,-5.117,-5.1301,-5.1192,-5.1199,-5.1203,-5.1488,-5.1493,-5.1497,0,0,0,0,0,0,-5.0875,-5.0894,-5.1054,-5.0979,-5.0998,-5.102,-5.1067,-5.1068,-5.1095,-5.112,-5.1122,-5.1092,-5.1147,-5.1161,-5.125,-5.1303,-5.1202,-5.1208,-5.1484,-5.1489,-5.1495,-5.1564,0,0,0,0,0,0,-5.0869,-5.0893,-5.0937,-5.098,-5.1002,-5.1135,-5.107,-5.1072,-5.1108,-5.1102,-5.1143,-5.1146,-5.1145,-5.124,-5.1256,-5.131,-5.1213,-5.1479,-5.1486,-5.1493,-5.1557,-5.1571,-5.1584,0,0,0,0,0,-5.0861,-5.0951,-5.0939,-5.0959,-5.1058,-5.1138,-5.115,-5.115,-5.1112,-5.1155,-5.1171,-5.1145,-5.1296,-5.125,-5.1268,-5.1324,-5.1475,-5.1484,-5.1492,-5.1551,-5.1569,-5.1584,0,0,0,0,0,0,-5.0909,-5.0956,-5.0944,-5.1052,-5.1092,-5.1131,-5.1185,-5.1169,-5.1218,-5.121,-5.1205,-5.1215,-5.1307,-5.1325,-5.1273,-5.1433,-5.1379,-5.1392,-5.1417,-5.1434,-5.1448,-5.1439,-5.1219,0,0,0,0,0,-5.0934,-5.0998,-5.1034,-5.1125,-5.1146,-5.1163,-5.1197,-5.1194,-5.1234,-5.125,-5.1272,-5.1309,-5.1365,-5.1401,-5.1454,-5.1561,-5.1567,-5.1609,-5.1622,-5.1633,-5.1643,-5.1698,-5.1716,-5.1525,-5.1525,-5.1525,0,0,-5.0982,-5.1016,-5.1056,-5.1136,-5.1167,-5.123,-5.1177,-5.1246,-5.1292,-5.1259,-5.1345,-5.1363,-5.1404,-5.1502,-5.1547,-5.152,-5.1698,-5.1644,-5.1653,-5.1656,-5.1709,-5.1727,-5.1743,-5.1531,-5.153,-5.1529,0,0,-5.1102,-5.1136,-5.1215,-5.1248,-5.1297,-5.1307,-5.1327,-5.1369,-5.138,-5.1468,-5.1444,-5.1498,-5.1594,-5.1624,-5.1652,-5.1786,-5.1763,-5.1804,-5.1872,-5.1926,-5.1941,-5.1954,-5.1999,-5.2016,-5.1814,-5.1814,-5.1814,0,-5.1155,-5.1253,-5.1257,-5.1329,-5.1363,-5.1342,-5.142,-5.145,-5.1512,-5.1535,-5.1506,-5.1627,-5.1653,-5.1757,-5.179,-5.1814,-5.1833,-5.1797,-5.1939,-5.1953,-5.1965,-5.2008,-5.2025,-5.1818,-5.1818,-5.1817,-5.1817,0,-5.1315,-5.1383,-5.1441,-5.1505,-5.1546,-5.1621,-5.1633,-5.1675,-5.1669,-5.1682,-5.1769,-5.1801,-5.1859,-5.1884,-5.1878,-5.1987,-5.1969,-5.194,-5.1885,-5.1988,-5.2027,-5.2044,-5.1825,-5.1823,-5.1822,-5.1821,0,0,-5.1464,-5.1532,-5.1553,-5.1582,-5.1635,-5.1686,-5.1759,-5.1819,-5.1853,-5.1898,-5.1956,-5.204,-5.2014,-5.2045,-5.2042,-5.2091,-5.2192,-5.2055,-5.2056,-5.2077,-5.2311,-5.233,-5.2349,-5.2179,-5.2182,-5.2185,-5.2306,0,-5.1586,-5.1717,-5.1724,-5.1842,-5.1903,-5.1884,-5.1947,-5.1985,-5.2,-5.2052,-5.2067,-5.2125,-5.2088,-5.2107,-5.2154,-5.217,-5.2238,-5.2162,-5.2229,-5.2232,-5.2216,-5.237,-5.239,-5.2504,-5.2322,-5.2325,-5.2327,0,-5.1745,-5.1797,-5.1923,-5.1968,-5.1993,-5.2051,-5.2106,-5.2158,-5.2199,-5.2206,-5.2244,-5.2234,-5.2306,-5.2252,-5.2349,-5.2296,-5.2325,-5.2337,-5.2341,-5.2344,-5.2283,-5.2374,-5.254,-5.2556,-5.2352,-5.235,-5.2348,0,-5.1837,-5.194,-5.2028,-5.2053,-5.2108,-5.2149,-5.2173,-5.2212,-5.2248,-5.2296,-5.2318,-5.2373,-5.2402,-5.2444,-5.2448,-5.2409,-5.2545,-5.2492,-5.2549,-5.2549,-5.2574,-5.2572,-5.2744,-5.26,-5.26,-5.2599,-5.2599,0,-5.197,-5.2046,-5.207,-5.2123,-5.2208,-5.2215,-5.2297,-5.2317,-5.2353,-5.2408,-5.2395,-5.2446,-5.2451,-5.2503,-5.2507,-5.2585,-5.2599,-5.2604,-5.2603,-5.2603,-5.2602,-5.2618,-5.2609,-5.2604,-5.2603,-5.2602,-5.2601,0,-5.2086,-5.2105,-5.2199,-5.2246,-5.2259,-5.2319,-5.2357,-5.2406,-5.2422,-5.2491,-5.2508,-5.2529,-5.259,-5.26,-5.2671,-5.2673,-5.2766,-5.2759,-5.2752,-5.275,-5.2805,-5.2799,-5.2991,-5.3015,-5.2858,-5.286,-5.2861,0,-5.2167,-5.2226,-5.228,-5.2318,-5.2346,-5.2406,-5.2444,-5.2453,-5.2492,-5.2545,-5.2587,-5.2648,-5.2696,-5.2793,-5.2813,-5.2866,-5.2858,-5.2922,-5.2865,-5.2863,-5.2855,-5.285,-5.2854,-5.2931,-5.2933,-5.2934,-5.2935,0,-5.2309,-5.2316,-5.2373,-5.2434,-5.248,-5.2527,-5.2571,-5.2602,-5.2616,-5.266,-5.2724,-5.2762,-5.2836,-5.2894,-5.2948,-5.2969,-5.2953,-5.2954,-5.2969,-5.2967,-5.296,-5.2961,-5.2777,-5.2948,-5.2947,-5.2946,-5.2945,-5.2945,-5.2407,-5.2459,-5.2505,-5.2568,-5.2604,-5.2646,-5.2695,-5.2718,-5.2773,-5.2835,-5.2837,-5.2906,-5.2946,-5.3017,-5.3042,-5.3094,-5.3073,-5.3096,-5.3101,-5.3106,-5.3109,-5.2956,-5.3104,-5.3104,-5.3103,-5.3103,-5.3103,0,-5.2545,-5.2575,-5.2634,-5.2699,-5.2748,-5.2735,-5.2784,-5.2824,-5.2886,-5.2927,-5.2976,-5.3048,-5.3106,-5.3132,-5.3187,-5.3224,-5.3218,-5.3237,-5.3232,-5.3237,-5.3127,-5.3106,-5.3241,-5.3241,-5.3241,-5.3241,-5.3241,-5.3241,-5.2622,-5.2708,-5.2721,-5.2823,-5.2852,-5.2922,-5.2951,-5.2989,-5.3021,-5.3104,-5.3153,-5.3171,-5.3205,-5.3264,-5.3314,-5.332,-5.3339,-5.3362,-5.3364,-5.3259,-5.3245,-5.3232,-5.3212,-5.3367,-5.3367,-5.3469,-5.347,-5.3471]},{"header":{"parameterUnit":"m.s-1","parameterCategory":1,"la1":30.2991,"la2":30.254,"lo1":-89.0895,"lo2":-89.0444,"dy":0.0017,"dx":0.0017,"nx":28,"ny":28,"refTime":"2024-06-04T03:00:00:Z","depth":0,"parameterNumber":3,"parameterNumberName":"V-component_of_WINDS"},"data":[0,0,0,0,0,0,0,0,0,0,0,0,0,0,0,0,0,0,0,0,0,0,0,0,0,0,0,0,0,0,0,0,0,0,0,0,0,0,0,0,0,0,0,0,0,0,0,0,0,0,0,0,0,0,0,0,0,0,3.9298,3.93,0,3.9517,3.9519,3.9522,3.9569,3.9567,3.9566,3.9564,3.9781,3.9788,3.9795,0,0,0,0,0,0,0,0,0,0,0,0,0,3.8914,3.8921,3.9298,3.93,3.9303,3.9517,3.952,3.9523,3.9569,3.9567,3.9565,3.9564,3.9779,3.9787,3.9796,0,0,0,0,0,0,0,0,0,0,0,0,0,3.9101,3.8923,3.9297,3.9353,3.936,3.9516,3.952,3.9523,3.957,3.9567,3.9565,3.9563,3.9776,3.9786,3.9797,3.9912,0,0,3.983,3.9835,0,0,0,0,0,0,0,0,3.9091,3.9116,3.9342,3.9349,3.9357,3.9513,3.9464,3.9653,3.957,3.949,3.9564,3.9562,3.9693,3.9711,3.9757,3.9922,3.9931,3.9831,3.9838,3.9843,3.9846,0,0,0,0,0,0,0,3.9078,3.9106,3.9384,3.9345,3.9354,3.9364,3.9388,3.95,3.9602,3.9497,3.9501,3.9526,3.9697,3.9746,3.9762,3.9934,3.9831,3.9841,3.9847,3.9852,4.0207,4.0209,0,0,0,0,0,0,3.9056,3.9095,3.9377,3.9391,3.9216,3.9373,3.94,3.9466,3.9601,3.9619,3.9528,3.9528,3.9729,3.975,3.977,3.9917,3.9843,3.9853,3.9859,4.0204,4.0207,4.0211,0,0,0,0,0,0,3.9048,3.9081,3.9368,3.9244,3.9282,3.9382,3.9455,3.9471,3.9521,3.9625,3.9643,3.956,3.9728,3.9755,3.9877,3.9925,3.9858,3.9867,4.02,4.0205,4.0209,4.0208,0,0,0,0,0,0,3.9036,3.9077,3.9123,3.9245,3.9288,3.9474,3.9458,3.9477,3.954,3.9542,3.966,3.9677,3.9728,3.9861,3.9888,3.9938,3.9876,4.0197,4.0202,4.0208,4.0204,4.0211,4.0218,0,0,0,0,0,3.9023,3.9112,3.9126,3.9159,3.9348,3.9477,3.9501,3.9561,3.9544,3.959,3.9657,3.9673,3.9914,3.9873,3.9904,3.9958,4.0194,4.0201,4.0207,4.0201,4.021,4.0217,0,0,0,0,0,0,3.899,3.9129,3.9145,3.9277,3.9365,3.9484,3.9545,3.9568,3.966,3.9658,3.9725,3.9751,3.987,3.9925,3.9877,4.0077,4.0053,4.0066,4.0038,4.0047,4.0054,4.0039,3.9885,0,0,0,0,0,3.8999,3.9094,3.9208,3.9313,3.9357,3.9443,3.9501,3.954,3.9633,3.9669,3.9745,3.9833,3.9929,3.999,4.0084,4.0211,4.0238,4.0263,4.027,4.0275,4.0287,4.0361,4.0374,4.0232,4.0232,4.0232,0,0,3.9017,3.9104,3.9159,3.9309,3.9382,3.9478,3.9474,3.9575,3.9646,3.9684,3.9806,3.9864,3.9966,4.0093,4.0152,4.0143,4.0332,4.0283,4.0287,4.0296,4.0369,4.0382,4.0394,4.0237,4.0236,4.0235,0,0,3.91,3.9174,3.9273,3.9346,3.9457,3.9514,3.9537,3.9654,3.9696,3.9819,3.9851,3.9934,4.0097,4.017,4.0228,4.034,4.0358,4.0367,4.0405,4.0476,4.0488,4.0498,4.0541,4.0555,4.0378,4.0378,4.0378,0,3.9108,3.9256,3.9319,3.942,3.9486,3.9526,3.9626,3.9693,3.9827,3.9871,3.9859,4.0067,4.0137,4.0283,4.0311,4.0355,4.0384,4.0356,4.0481,4.0492,4.0503,4.0545,4.056,4.0378,4.0378,4.0378,4.0378,0,3.9262,3.9364,3.9429,3.9563,3.9635,3.9733,3.9811,3.9876,3.9907,3.9965,4.0091,4.0178,4.0292,4.0328,4.0358,4.0478,4.047,4.0468,4.0446,4.0516,4.0557,4.0573,4.0379,4.0379,4.0379,4.0379,0,0,3.9332,3.9501,3.9524,3.9587,3.9712,3.9792,3.9892,4.0006,4.0062,4.0152,4.0239,4.0377,4.0378,4.0443,4.0482,4.0544,4.0631,4.0536,4.0539,4.0553,4.0772,4.0775,4.0793,4.0643,4.0646,4.0648,4.0764,0,3.9434,3.9619,3.9679,3.9833,3.9929,3.9968,4.0056,4.0142,4.0198,4.0286,4.0346,4.0445,4.0436,4.0477,4.054,4.0607,4.0676,4.0599,4.0725,4.0729,4.0703,4.0813,4.0817,4.0923,4.078,4.0783,4.0785,0,3.9577,3.9675,3.984,3.9956,3.9999,4.0077,4.0188,4.0271,4.0369,4.0405,4.048,4.0514,4.062,4.0589,4.0736,4.0682,4.0736,4.0776,4.0782,4.0799,4.0764,4.0837,4.0957,4.0975,4.081,4.0808,4.0806,0,3.9618,3.9789,3.9911,3.9962,4.01,4.0155,4.0214,4.031,4.0375,4.047,4.0514,4.0618,4.0676,4.0755,4.0816,4.0787,4.0959,4.0932,4.0993,4.0992,4.103,4.1028,4.1165,4.1058,4.1058,4.1058,4.1057,0,3.9727,3.9827,3.9932,4.0007,4.012,4.0186,4.0295,4.0356,4.0441,4.0528,4.0566,4.0646,4.072,4.081,4.0857,4.0974,4.0998,4.103,4.1043,4.103,4.1026,4.1069,4.1065,4.1062,4.1061,4.106,4.106,0,3.9792,3.9866,4.0002,4.0122,4.0155,4.0233,4.0335,4.0409,4.0466,4.0576,4.0605,4.0695,4.0803,4.0871,4.1006,4.1038,4.1167,4.1174,4.1135,4.1142,4.1201,4.1196,4.1374,4.1402,4.1272,4.1273,4.1274,0,3.986,3.9938,4.0068,4.0131,4.0192,4.029,4.0359,4.0426,4.0495,4.0613,4.0673,4.0783,4.0876,4.1046,4.1122,4.1226,4.1239,4.1294,4.1255,4.1241,4.1245,4.1241,4.1251,4.1302,4.1303,4.1303,4.1304,0,3.9972,4.0006,4.0104,4.0216,4.0297,4.0387,4.0476,4.0525,4.0607,4.0682,4.0795,4.0867,4.1007,4.1117,4.1228,4.1287,4.131,4.1315,4.1336,4.1326,4.1302,4.132,4.1157,4.1312,4.1311,4.1311,4.131,4.131,4.0044,4.0117,4.0221,4.0329,4.0405,4.0488,4.0565,4.0633,4.0729,4.0852,4.0883,4.1002,4.1098,4.1251,4.1311,4.1404,4.1397,4.1425,4.1433,4.144,4.1444,4.1284,4.1423,4.1423,4.1423,4.1423,4.1423,0,4.0163,4.0232,4.0331,4.0458,4.0543,4.0558,4.0659,4.0729,4.0834,4.0922,4.1014,4.1144,4.1251,4.1335,4.1445,4.1503,4.1516,4.153,4.1528,4.1542,4.1441,4.1415,4.1517,4.1517,4.1517,4.1517,4.1517,4.1517,4.0235,4.0361,4.0406,4.0569,4.0637,4.0756,4.0812,4.0889,4.0961,4.1106,4.1197,4.1252,4.1339,4.1456,4.1555,4.1577,4.1617,4.1629,4.1653,4.1559,4.1549,4.1539,4.1515,4.1636,4.1636,4.1747,4.1748,4.1749]}]]